Regional Weather Roundup
Issued by NWS

Home | Current Version | Previous Version | Graphics & Text | Print | Product List | Glossary On
Versions: 1 2 3 4 5 6 7 8 9 10 11 12 13 14 15 16 17 18 19 20 21 22 23 24 25 26 27 28 29 30 31 32 33 34 35 36 37 38 39 40 41 42 43 44 45 46 47 48 49 50
159
ASUS44 KMEG 290000
RWRTN
TENNESSEE HOURLY STATE WEATHER ROUNDUP
NATIONAL WEATHER SERVICE MEMPHIS TN
700 PM CDT TUE MAR 28 2017

TNZ002-004-019-021-049-052-054-088>092-290100-
WEST TENNESSEE

CITY           SKY/WX    TMP DP  RH WIND       PRES   REMARKS
MEMPHIS INTL   PTCLDY    74  55  51 E9        29.94R
NWS MEMPHIS      N/A     72 N/A N/A MISG        N/A
JACKSON        CLEAR     69  56  62 N7        29.97F
PARIS          PTCLDY    61  52  72 NE7       30.02S
$$

TNZ008-025-027-028-033-062-065-066-290100-
NORTH MIDDLE TENNESSEE

CITY           SKY/WX    TMP DP  RH WIND       PRES   REMARKS
NASHVILLE      PTCLDY    66  54  65 NE13      30.02R
CLARKSVILLE    PTCLDY    59  53  80 N7        30.04R HAZE
SMYRNA         CLEAR     66  53  63 N8        30.02R
CROSSVILLE     CLOUDY    61  50  67 NW6       30.04S
$$

TNZ061-075-076-078-094-096-097-290100-
SOUTH MIDDLE TENNESSEE

CITY           SKY/WX    TMP DP  RH WIND       PRES   REMARKS
TULLAHOMA      CLEAR     66  52  59 VRB6        N/A
WINCHESTER     CLEAR     64  54  68 N5        30.01S
MCMINNVILLE    MOCLDY    64  54  68 N5        30.02S
COLUMBIA       CLEAR     72  52  49 CALM      29.97S
SHELBYVILLE    CLEAR     66  57  72 NE5       30.02R
$$

TNZ017-018-042-046-047-290100-
NORTHEAST TENNESSEE

CITY           SKY/WX    TMP DP  RH WIND       PRES   REMARKS
TRI CITIES     CLOUDY    63  50  62 N6        30.01R
$$

TNZ012-013-036-069-073-074-290100-
CENTRAL EAST TENNESSEE

CITY           SKY/WX    TMP DP  RH WIND       PRES   REMARKS
KNOXVILLE      PTCLDY    68  51  54 W6        29.98R
OAK RIDGE      CLEAR     69  48  47 W5        30.00R
GATLINBURG     CLOUDY    68  50  52 CALM      29.98R
$$

TNZ083-085-099-290100-
SOUTHEAST TENNESSEE

CITY           SKY/WX    TMP DP  RH WIND       PRES   REMARKS
CHATTANOOGA    PTCLDY    72  51  47 NW5       29.98R
$$

SKY/WX REPORTED AS FAIR MEANS FEW OR NO CLOUDS BELOW
12 THOUSAND FEET.





USA.gov is the U.S. government's official web portal to all federal, state and local government web resources and services.